[[{"header":{"parameterUnit":"m.s-1","parameterCategory":1,"la1":30.2991,"la2":30.254,"lo1":-89.0895,"lo2":-89.0444,"dy":0.0017,"dx":0.0017,"nx":28,"ny":28,"refTime":"2025-04-12T03:00:00:Z","depth":0,"parameterNumber":2,"parameterNumberName":"U-component_of_WINDS"},"data":[0,0,0,0,0,0,0,0,0,0,0,0,0,0,0,0,0,0,0,0,0,0,0,0,0,0,0,0,0,0,0,0,0,0,0,0,0,0,0,0,0,0,0,0,0,0,0,0,0,0,0,0,0,0,0,0,0,0,-1.6348,-1.6348,0,-1.6332,-1.6332,-1.6332,-1.6248,-1.6246,-1.6244,-1.6243,-1.6229,-1.6231,-1.6232,0,0,0,0,0,0,0,0,0,0,0,0,0,-1.6309,-1.631,-1.6348,-1.6348,-1.6348,-1.6332,-1.6332,-1.6332,-1.6249,-1.6246,-1.6244,-1.6242,-1.6229,-1.6231,-1.6232,0,0,0,0,0,0,0,0,0,0,0,0,0,-1.6313,-1.631,-1.6348,-1.6304,-1.63,-1.6332,-1.6332,-1.6332,-1.6249,-1.6246,-1.6243,-1.6241,-1.6228,-1.623,-1.6233,-1.6306,0,0,-1.6239,-1.624,0,0,0,0,0,0,0,0,-1.6313,-1.6314,-1.6311,-1.6307,-1.6303,-1.6289,-1.6313,-1.6323,-1.625,-1.6269,-1.6243,-1.6239,-1.6252,-1.6252,-1.6256,-1.6306,-1.6305,-1.624,-1.6241,-1.6242,-1.6243,0,0,0,0,0,0,0,-1.6312,-1.6314,-1.6342,-1.6311,-1.6306,-1.6286,-1.6283,-1.6315,-1.6277,-1.6267,-1.6261,-1.626,-1.6249,-1.6254,-1.6255,-1.6305,-1.624,-1.6242,-1.6243,-1.6244,-1.6414,-1.6417,0,0,0,0,0,0,-1.6318,-1.6315,-1.6342,-1.6341,-1.63,-1.6289,-1.6286,-1.6297,-1.6277,-1.6271,-1.6262,-1.6256,-1.6251,-1.6252,-1.6254,-1.6339,-1.6242,-1.6244,-1.6245,-1.6411,-1.6415,-1.6418,0,0,0,0,0,0,-1.6317,-1.6321,-1.6343,-1.6326,-1.6327,-1.6293,-1.6305,-1.6298,-1.6302,-1.6273,-1.6266,-1.6274,-1.6249,-1.6251,-1.6293,-1.6337,-1.6245,-1.6247,-1.6407,-1.6412,-1.6416,-1.6509,0,0,0,0,0,0,-1.6317,-1.6321,-1.6349,-1.6327,-1.6329,-1.6383,-1.6308,-1.63,-1.6306,-1.6298,-1.6282,-1.6277,-1.6247,-1.6291,-1.6296,-1.6338,-1.6249,-1.6403,-1.6409,-1.6415,-1.6502,-1.6516,-1.6529,0,0,0,0,0,-1.6315,-1.6376,-1.6351,-1.6354,-1.6362,-1.6385,-1.6386,-1.6349,-1.631,-1.6337,-1.6318,-1.6277,-1.6331,-1.6296,-1.6301,-1.6345,-1.64,-1.6408,-1.6415,-1.6496,-1.6514,-1.6528,0,0,0,0,0,0,-1.6405,-1.6373,-1.6344,-1.6399,-1.6395,-1.6371,-1.6405,-1.6369,-1.6377,-1.6369,-1.6324,-1.6321,-1.6371,-1.6362,-1.6323,-1.6415,-1.6359,-1.6367,-1.6419,-1.6435,-1.6448,-1.645,-1.6251,0,0,0,0,0,-1.6431,-1.6451,-1.6422,-1.6474,-1.6474,-1.644,-1.6448,-1.642,-1.6415,-1.6413,-1.6397,-1.6395,-1.641,-1.6422,-1.6436,-1.65,-1.6496,-1.6533,-1.6546,-1.6557,-1.6565,-1.6599,-1.6615,-1.6442,-1.6442,-1.6441,0,0,-1.6485,-1.647,-1.6486,-1.6492,-1.6485,-1.6509,-1.6439,-1.6467,-1.6483,-1.6418,-1.6457,-1.6445,-1.6439,-1.6493,-1.6516,-1.6487,-1.6612,-1.6566,-1.6575,-1.6577,-1.6608,-1.6624,-1.6639,-1.6446,-1.6446,-1.6445,0,0,-1.6596,-1.6586,-1.6628,-1.6623,-1.6614,-1.659,-1.6601,-1.6581,-1.6571,-1.6609,-1.656,-1.658,-1.6608,-1.6606,-1.6608,-1.6717,-1.6679,-1.6722,-1.6793,-1.6826,-1.6839,-1.6851,-1.689,-1.6905,-1.673,-1.6731,-1.6731,0,-1.6665,-1.6697,-1.6655,-1.6685,-1.6689,-1.6629,-1.6671,-1.6668,-1.6665,-1.6669,-1.6637,-1.6671,-1.6663,-1.6715,-1.6741,-1.6745,-1.6756,-1.6724,-1.684,-1.6852,-1.6862,-1.6899,-1.6914,-1.6736,-1.6735,-1.6735,-1.6734,0,-1.6782,-1.6805,-1.684,-1.6836,-1.6844,-1.6881,-1.6845,-1.6858,-1.6829,-1.6809,-1.6849,-1.6836,-1.6846,-1.6856,-1.6829,-1.6905,-1.6887,-1.6848,-1.6791,-1.6885,-1.6919,-1.6932,-1.6744,-1.6742,-1.674,-1.6739,0,0,-1.695,-1.6921,-1.6935,-1.6932,-1.6917,-1.6935,-1.6968,-1.6976,-1.6988,-1.6988,-1.7015,-1.704,-1.7004,-1.7007,-1.6978,-1.7007,-1.7094,-1.6965,-1.6964,-1.6989,-1.7177,-1.7207,-1.7224,-1.7069,-1.7071,-1.7073,-1.7178,0,-1.7056,-1.7111,-1.7074,-1.7135,-1.7156,-1.7098,-1.7127,-1.7122,-1.7104,-1.712,-1.71,-1.7119,-1.707,-1.7071,-1.7097,-1.7078,-1.7131,-1.707,-1.7095,-1.7096,-1.7098,-1.7241,-1.7273,-1.7372,-1.7191,-1.7193,-1.7195,0,-1.7188,-1.7191,-1.7254,-1.7234,-1.7241,-1.7268,-1.7272,-1.7287,-1.728,-1.7265,-1.7268,-1.7231,-1.7264,-1.7207,-1.7251,-1.721,-1.7217,-1.721,-1.7213,-1.7214,-1.7152,-1.7247,-1.7403,-1.7418,-1.7215,-1.7213,-1.7212,0,-1.7304,-1.7325,-1.7365,-1.7364,-1.7342,-1.7362,-1.7354,-1.7343,-1.735,-1.7354,-1.7358,-1.7366,-1.737,-1.7378,-1.7345,-1.7306,-1.7393,-1.7334,-1.7382,-1.7383,-1.7404,-1.7403,-1.7564,-1.7408,-1.7408,-1.7408,-1.7408,0,-1.7427,-1.7468,-1.7417,-1.7442,-1.7486,-1.7442,-1.7488,-1.7473,-1.7464,-1.7485,-1.7437,-1.7458,-1.7413,-1.743,-1.7405,-1.7445,-1.7447,-1.7437,-1.743,-1.7442,-1.7443,-1.7446,-1.7439,-1.7412,-1.7411,-1.741,-1.741,0,-1.7565,-1.7532,-1.7572,-1.7547,-1.7541,-1.7575,-1.7554,-1.7576,-1.7554,-1.7582,-1.7587,-1.7553,-1.7571,-1.7538,-1.7552,-1.7535,-1.7591,-1.7573,-1.7594,-1.7589,-1.7639,-1.7635,-1.7808,-1.7829,-1.766,-1.7662,-1.7663,0,-1.7646,-1.7676,-1.7653,-1.7663,-1.7657,-1.7675,-1.7681,-1.7639,-1.7648,-1.7641,-1.7665,-1.7677,-1.7686,-1.7716,-1.7694,-1.7704,-1.7686,-1.7746,-1.7688,-1.7698,-1.7688,-1.7686,-1.7689,-1.7759,-1.7761,-1.7762,-1.7764,0,-1.7793,-1.7775,-1.7785,-1.779,-1.7799,-1.7801,-1.78,-1.7811,-1.7767,-1.7779,-1.7796,-1.7802,-1.7815,-1.7829,-1.7833,-1.7826,-1.7788,-1.7782,-1.7794,-1.7807,-1.7817,-1.7813,-1.7627,-1.7779,-1.7777,-1.7776,-1.7775,-1.7775,-1.7905,-1.7929,-1.7916,-1.7929,-1.7923,-1.7923,-1.7942,-1.7923,-1.7935,-1.7942,-1.7916,-1.7939,-1.793,-1.7932,-1.7928,-1.7945,-1.7919,-1.7936,-1.794,-1.7945,-1.7954,-1.7814,-1.7946,-1.7946,-1.7945,-1.7945,-1.7944,0,-1.805,-1.8038,-1.8051,-1.805,-1.806,-1.8022,-1.8018,-1.803,-1.8049,-1.8044,-1.8052,-1.8071,-1.8084,-1.8062,-1.8072,-1.809,-1.8073,-1.8094,-1.8092,-1.8091,-1.7977,-1.7966,-1.8107,-1.8107,-1.8107,-1.8107,-1.8107,-1.8107,-1.8126,-1.8164,-1.8144,-1.8179,-1.8167,-1.8188,-1.8189,-1.8188,-1.8183,-1.8206,-1.8216,-1.8201,-1.8189,-1.8197,-1.8207,-1.82,-1.8207,-1.8234,-1.8221,-1.8115,-1.8099,-1.8084,-1.8073,-1.8235,-1.8236,-1.8334,-1.8335,-1.8336]},{"header":{"parameterUnit":"m.s-1","parameterCategory":1,"la1":30.2991,"la2":30.254,"lo1":-89.0895,"lo2":-89.0444,"dy":0.0017,"dx":0.0017,"nx":28,"ny":28,"refTime":"2025-04-12T03:00:00:Z","depth":0,"parameterNumber":3,"parameterNumberName":"V-component_of_WINDS"},"data":[0,0,0,0,0,0,0,0,0,0,0,0,0,0,0,0,0,0,0,0,0,0,0,0,0,0,0,0,0,0,0,0,0,0,0,0,0,0,0,0,0,0,0,0,0,0,0,0,0,0,0,0,0,0,0,0,0,0,-2.4523,-2.4524,0,-2.4622,-2.4623,-2.4624,-2.4612,-2.461,-2.4608,-2.4607,-2.4706,-2.471,-2.4714,0,0,0,0,0,0,0,0,0,0,0,0,0,-2.4318,-2.4322,-2.4522,-2.4524,-2.4525,-2.4622,-2.4623,-2.4625,-2.4612,-2.461,-2.4608,-2.4606,-2.4705,-2.4709,-2.4714,0,0,0,0,0,0,0,0,0,0,0,0,0,-2.4411,-2.4323,-2.4522,-2.453,-2.4532,-2.4622,-2.4623,-2.4625,-2.4612,-2.461,-2.4608,-2.4605,-2.4703,-2.4709,-2.4715,-2.4802,0,0,-2.4734,-2.4737,0,0,0,0,0,0,0,0,-2.4406,-2.4419,-2.4528,-2.453,-2.4532,-2.4602,-2.4588,-2.4684,-2.4613,-2.4582,-2.4607,-2.4604,-2.4673,-2.4682,-2.4706,-2.4807,-2.4811,-2.4735,-2.4738,-2.4741,-2.4743,0,0,0,0,0,0,0,-2.44,-2.4414,-2.4562,-2.453,-2.4532,-2.4528,-2.4539,-2.4606,-2.464,-2.4584,-2.4584,-2.4596,-2.4674,-2.47,-2.4708,-2.4812,-2.4734,-2.474,-2.4744,-2.4746,-2.4989,-2.4992,0,0,0,0,0,0,-2.4392,-2.4409,-2.4559,-2.4565,-2.4462,-2.4534,-2.4546,-2.4582,-2.4639,-2.4645,-2.4598,-2.4595,-2.469,-2.4701,-2.4711,-2.4816,-2.4741,-2.4747,-2.475,-2.4986,-2.499,-2.4993,0,0,0,0,0,0,-2.4387,-2.4405,-2.4555,-2.4487,-2.4506,-2.454,-2.4581,-2.4585,-2.4611,-2.4649,-2.4655,-2.4618,-2.4689,-2.4702,-2.478,-2.482,-2.475,-2.4755,-2.4983,-2.4987,-2.4991,-2.5028,0,0,0,0,0,0,-2.4381,-2.4404,-2.4438,-2.4488,-2.4509,-2.4622,-2.4583,-2.4589,-2.4622,-2.4619,-2.467,-2.4676,-2.4688,-2.477,-2.4786,-2.4827,-2.476,-2.498,-2.4985,-2.499,-2.5023,-2.5033,-2.5041,0,0,0,0,0,-2.4374,-2.4443,-2.4439,-2.4457,-2.4553,-2.4625,-2.4637,-2.465,-2.4626,-2.466,-2.4684,-2.4674,-2.4813,-2.4778,-2.4796,-2.4839,-2.4977,-2.4983,-2.4989,-2.5019,-2.5031,-2.5041,0,0,0,0,0,0,-2.4396,-2.445,-2.4446,-2.4534,-2.4575,-2.4622,-2.4666,-2.4662,-2.471,-2.4705,-2.4719,-2.473,-2.4808,-2.4831,-2.4792,-2.4926,-2.4891,-2.4901,-2.4908,-2.492,-2.4928,-2.4921,-2.4765,0,0,0,0,0,-2.4411,-2.4466,-2.451,-2.4583,-2.4604,-2.4631,-2.4663,-2.467,-2.4713,-2.473,-2.476,-2.48,-2.4853,-2.4888,-2.4938,-2.5026,-2.5037,-2.5065,-2.5074,-2.5081,-2.5089,-2.5137,-2.515,-2.5013,-2.5013,-2.5013,0,0,-2.4443,-2.4479,-2.4513,-2.4588,-2.4621,-2.4676,-2.4646,-2.4706,-2.4747,-2.4738,-2.4813,-2.4837,-2.4883,-2.4966,-2.5004,-2.4988,-2.5129,-2.5089,-2.5094,-2.5098,-2.5145,-2.5158,-2.5169,-2.5017,-2.5016,-2.5015,0,0,-2.4529,-2.4562,-2.4626,-2.466,-2.471,-2.4728,-2.4743,-2.4792,-2.4807,-2.4883,-2.4877,-2.4926,-2.5017,-2.505,-2.5079,-2.5177,-2.517,-2.5193,-2.5239,-2.5286,-2.5297,-2.5306,-2.5341,-2.5354,-2.5202,-2.5202,-2.5202,0,-2.4561,-2.4646,-2.466,-2.4721,-2.4754,-2.475,-2.4814,-2.4846,-2.491,-2.4932,-2.4913,-2.5027,-2.5058,-2.5148,-2.5173,-2.5196,-2.5214,-2.5188,-2.5294,-2.5304,-2.5313,-2.5347,-2.536,-2.5204,-2.5204,-2.5204,-2.5203,0,-2.4683,-2.4742,-2.4788,-2.4851,-2.4889,-2.4952,-2.4974,-2.5011,-2.5014,-2.5034,-2.5111,-2.5148,-2.5206,-2.5228,-2.5231,-2.5319,-2.5307,-2.5291,-2.5257,-2.5329,-2.536,-2.5373,-2.5208,-2.5207,-2.5206,-2.5206,0,0,-2.4786,-2.4856,-2.4872,-2.4901,-2.4956,-2.5001,-2.5063,-2.5121,-2.5152,-2.5196,-2.5248,-2.5325,-2.531,-2.5343,-2.535,-2.5391,-2.5467,-2.537,-2.5371,-2.5386,-2.5565,-2.5577,-2.5591,-2.5462,-2.5465,-2.5467,-2.5561,0,-2.4877,-2.4988,-2.5002,-2.51,-2.5155,-2.5151,-2.5205,-2.5244,-2.5264,-2.5312,-2.5333,-2.5388,-2.5365,-2.5384,-2.5425,-2.5449,-2.5503,-2.5442,-2.551,-2.5512,-2.5498,-2.5608,-2.5621,-2.5708,-2.5574,-2.5576,-2.5577,0,-2.4998,-2.5047,-2.5151,-2.5198,-2.5221,-2.527,-2.5324,-2.537,-2.5414,-2.5425,-2.5462,-2.5464,-2.5527,-2.5491,-2.5577,-2.5536,-2.5564,-2.558,-2.5584,-2.5591,-2.5549,-2.5617,-2.5736,-2.5749,-2.5597,-2.5595,-2.5594,0,-2.5062,-2.5153,-2.5227,-2.5252,-2.5309,-2.5343,-2.5368,-2.541,-2.5444,-2.5491,-2.5513,-2.5566,-2.5595,-2.5636,-2.5651,-2.5623,-2.5737,-2.5702,-2.5748,-2.5748,-2.5772,-2.577,-2.5897,-2.5791,-2.5791,-2.579,-2.579,0,-2.5163,-2.5226,-2.5257,-2.5302,-2.5373,-2.5389,-2.5458,-2.5482,-2.5519,-2.5568,-2.5568,-2.5614,-2.5632,-2.5681,-2.5694,-2.5764,-2.5777,-2.5787,-2.579,-2.5787,-2.5786,-2.5806,-2.58,-2.5794,-2.5793,-2.5792,-2.5792,0,-2.5246,-2.5269,-2.535,-2.5398,-2.5411,-2.5461,-2.5502,-2.5545,-2.5565,-2.5627,-2.5643,-2.5673,-2.573,-2.575,-2.5819,-2.5828,-2.5909,-2.5907,-2.5895,-2.5895,-2.594,-2.5936,-2.6084,-2.6104,-2.5985,-2.5986,-2.5987,0,-2.5309,-2.5358,-2.5411,-2.5445,-2.5472,-2.5525,-2.556,-2.5577,-2.5613,-2.5667,-2.5703,-2.5761,-2.5807,-2.5899,-2.5926,-2.5979,-2.5978,-2.6026,-2.5986,-2.5982,-2.5978,-2.5975,-2.598,-2.6034,-2.6035,-2.6036,-2.6037,0,-2.5417,-2.5426,-2.5477,-2.5532,-2.5574,-2.5617,-2.5659,-2.5687,-2.5709,-2.575,-2.5809,-2.5845,-2.5916,-2.5973,-2.6027,-2.6052,-2.6048,-2.6049,-2.6063,-2.6061,-2.6052,-2.6057,-2.5915,-2.6046,-2.6045,-2.6044,-2.6044,-2.6043,-2.5492,-2.5535,-2.558,-2.5636,-2.567,-2.571,-2.5753,-2.5778,-2.5828,-2.5888,-2.5895,-2.5958,-2.6,-2.6073,-2.61,-2.6149,-2.6136,-2.6155,-2.616,-2.6165,-2.6168,-2.6044,-2.6159,-2.6159,-2.6159,-2.6159,-2.6158,0,-2.56,-2.5629,-2.5681,-2.574,-2.5784,-2.5778,-2.5824,-2.5861,-2.5918,-2.5958,-2.6004,-2.6072,-2.6127,-2.6159,-2.6213,-2.6247,-2.6246,-2.626,-2.6258,-2.6264,-2.6177,-2.616,-2.626,-2.626,-2.626,-2.626,-2.626,-2.626,-2.5662,-2.5735,-2.5749,-2.5839,-2.5866,-2.593,-2.5957,-2.5993,-2.6025,-2.6101,-2.6147,-2.6168,-2.6205,-2.6262,-2.6312,-2.632,-2.634,-2.6355,-2.6362,-2.628,-2.627,-2.626,-2.6244,-2.636,-2.636,-2.6444,-2.6445,-2.6445]}]]